weather.gov     
National Weather Service

Regional Weather Roundup
NWS Homepage
This page is being discontinued on March 12, 2014.
The same data is available at this site. Please update your bookmarks.
Thank you, and we apologize for the inconvenience.
Please send an email to SR-SRH.Webmaster@noaa.gov with any concerns.


Current Version
Previous Version:    01  02  03  04  05  06  07  08  09  10  11  12  13  14  15  16  17  18  19  20  21  22  23  24  25  26  27  28  29  30  
   31  32  33  34  35  36  37  38  39  40  41  42  43  44  45  46  47  48  49  50  51  52  53  54  
[Printable]
137
ASUS43 KFSD 201710
RWRFSD

WEATHER ROUNDUP FOR SE SOUTH DAKOTA/SW MINNESOTA/NW IOWA
NATIONAL WEATHER SERVICE SIOUX FALLS SD
1100 AM CST SAT DEC 20 2014

NOTE: "FAIR" INDICATES FEW OR NO CLOUDS BELOW 12,000 FEET WITH NO
SIGNIFICANT WEATHER AND OR OBSTRUCTIONS TO VISIBILITY.


SDZ038>040-050-052>070-201800-
SOUTHEAST SOUTH DAKOTA

CITY           SKY/WX    TMP DP  RH WIND       PRES   REMARKS
CHAMBERLAIN    MOSUNNY   20  19  94 SE5       29.98F WCI  14
HURON          FOG       26  26 100 S9        30.03S VSB 3/4 WCI  17
MADISON        CLOUDY    30  30 100 S14       30.03S FOG     WCI  20
MITCHELL       FOG       28  27  96 S14       30.05F VSB 1/4 WCI  17
SIOUX FALLS    CLOUDY    32  29  88 S9        30.06F WCI  24
WINNER         FAIR      32  22  66 S9        29.96S WCI  24
YANKTON        CLOUDY    32  28  86 S12       30.09R WCI  23
$$

MNZ071-072-080-081-089-090-097-098-201800-
SOUTHWEST MINNESOTA

CITY           SKY/WX    TMP DP  RH WIND       PRES   REMARKS
FAIRMONT       CLOUDY    30  25  80 S9        30.13S WCI  22
JACKSON        CLOUDY    32  28  86 S9        30.11S WCI  24
LUVERNE        CLOUDY    32  30  93 S13       30.09S FOG     WCI  22
MARSHALL       CLOUDY    32  27  80 SW15      30.08S WCI  22
MONTEVIDEO     CLOUDY    32  30  93 SW8       30.09S FOG     WCI  25
PIPESTONE      CLOUDY    30  28  93 S3        30.05F FOG
REDWOOD FALLS  CLOUDY    32  29  88 S9        30.11S WCI  24
TRACY          CLOUDY    32  30  90 S9        30.08F FOG     WCI  24
WINDOM         CLOUDY    30  28  93 S12       30.10S WCI  21
WORTHINGTON    CLOUDY    30  27  86 S12       30.09S WCI  21
$$

IAZ001>003-012>014-020>022-031-032-NEZ013-014-SDZ071-201800-
NORTHWEST IOWA

CITY           SKY/WX    TMP DP  RH WIND       PRES   REMARKS
CHEROKEE       CLOUDY    31  31 100 S6        30.12S FOG     WCI  25
DENISON        CLOUDY    32  32 100 S6        30.11S FOG     WCI  26
ESTHERVILLE    CLOUDY    29  27  92 S12       30.12S WCI  19
LE MARS        CLOUDY    32  30  93 S10       30.11F WCI  24
ORANGE CITY    CLOUDY    32  28  86 S9        30.09F FOG     WCI  24
SHELDON        CLOUDY    30  30 100 S12       30.09S FOG     WCI  21
SIOUX CITY     CLOUDY    33  30  88 S9        30.11F WCI  25
SPENCER        CLOUDY    31  28  89 S10       30.11F FOG     WCI  22
STORM LAKE     CLOUDY    30  30 100 S10       30.12S FOG     WCI  21
$$

ABBREVIATIONS USED IN REMARKS
   TC - TEMPERATURE IN CELSIUS
  WCI - WIND CHILL INDEX
   HX - HEAT INDEX
  VSB - VISIBILITY





U.S. Dept. of Commerce
NOAA National Weather Service
1325 East West Highway
Silver Spring, MD 20910
E-mail: w-nws.webmaster@noaa.gov
Page last modified: May 16, 2007
NATIONAL WEATHER SERVICE: for Safety, for Work, for Fun - FOR LIFE